Miscellaneous Local Product
Issued by NWS North Platte, NE

Home | Current Version | Previous Version | Text Only | Print | Product List | Glossary On
Versions: 1 2 3 4 5 6 7 8 9 10 11 12 13 14 15 16 17 18 19 20 21 22 23 24 25 26 27 28 29 30 31 32 33 34 35 36 37 38 39 40 41 42 43 44 45 46 47 48 49 50
000
AXUS43 KLBF 050010
MISLBF


WESTERN AND NORTH CENTRAL NEBRASKA HOURLY WEATHER ROUNDUP
NATIONAL WEATHER SERVICE NORTH PLATTE NE
700 PM CDT MON MAY 04 2015

***STATIONS NOT REPORTING VARIABLES SUCH AS SKY/WEATHER OR
PRESSURE ARE PROVIDED BY THE NEBRASKA DEPARTMENT OF
ROADS...RAWS...AND APRS NETWORKS...AND ARE NOT UNDER
NATIONAL WEATHER SERVICE QUALITY CONTROL***

...OBSERVATIONS IN AND NEAR THE EASTERN PANHANDLE OF NEBRASKA...

CITY           SKY/WX    TMP DP  RH WIND       PRES   REMARKS
PINE RIDGE     LGT RAIN  57  36  45 E7        30.12F
CHADRON        CLOUDY    53  42  66 NE9       30.10F
ALLIANCE       PTSUNNY   58  31  35 SE16G22   30.10S
SIDNEY         CLOUDY    52  41  66 SE16      30.11S
WHITECLAY        N/A     55  34  45 E5          N/A
BIG SPRINGS      N/A     50  44  80 E12         N/A
$$

...OBSERVATIONS IN NORTH CENTRAL NEBRASKA...

CITY           SKY/WX    TMP DP  RH WIND       PRES   REMARKS
VALENTINE      CLOUDY    65  25  22 E14       30.10F
THEDFORD       CLOUDY    59  37  43 SE8       30.12F
AINSWORTH      CLOUDY    65  31  28 SE14      30.10F
O`NEILL        CLOUDY    64  39  40 E9        30.10F
ORD            CLOUDY    57  47  69 E9        30.09F
BROKEN BOW     CLOUDY    54  50  86 E7        30.10S
BROWNLEE         N/A     64  29  27 E12         N/A
VALENTINE NWR    N/A     62  29  28 SE10        N/A
SPRINGVIEW       N/A     67  31  26 SE14        N/A
HALSEY           N/A     57  37  48 E6G14       N/A
BREWSTER         N/A     61  45  54 CALM        N/A
ROSE             N/A     61  41  47 E8          N/A
NEWPORT          N/A     63  41  44 E7          N/A
SARGENT          N/A     56  48  74 CALM        N/A
COMSTOCK         N/A     56  53  89 E8          N/A
EWING            N/A     62  45  54 E9          N/A
$$

...OBSERVATIONS IN SOUTHWEST NEBRASKA AND FAR NORTHEAST COLORADO...

CITY           SKY/WX    TMP DP  RH WIND       PRES   REMARKS
WRAY           CLOUDY    54  46  76 NE10      30.10R
IMPERIAL       CLOUDY    50  44  80 E15       30.09F
OGALLALA       CLOUDY    48  45  87 E12       30.11F
NORTH PLATTE   LGT RAIN  50  45  83 NE8       30.11F
MCCOOK         CLOUDY    54  48  80 N14       30.08R
LEXINGTON      CLOUDY    54  51  91 NE13      30.08F
PAXTON           N/A     48  45  90 NE7         N/A
SUTHERLAND       N/A     44  42  93 E7          N/A
GOTHENBURG       N/A     53  47  81 CALM        N/A
CALLAWAY         N/A     52  50  93 NE6         N/A
$$

...NORTH PLATTE AREA...

CITY           SKY/WX    TMP DP  RH WIND       PRES   REMARKS
AIRPORT        LGT RAIN  50  45  83 NE8       30.11F
DOWNTOWN         N/A     49  46  90 CALM        N/A
$$

...SOME WEATHER OBSERVATIONS FROM AROUND THE REGION...

CITY           SKY/WX    TMP DP  RH WIND       PRES   REMARKS
DENVER         CLOUDY    57  48  72 E15       30.04S THUNDER
LARAMIE        CLOUDY    48  41  76 S17       30.09F
CHEYENNE       CLOUDY    52  43  71 S12       30.10S
SCOTTSBLUFF    PTSUNNY   61  36  39 SE17G23   30.08F
RAPID CITY     MOSUNNY   59  32  36 SE22G28   30.11F
PIERRE         CLOUDY    66  23  19 NE14      30.12F
WINNER         LGT RAIN  67  25  20 E9        30.11F
SIOUX FALLS    CLOUDY    69  29  22 SE15      30.12F
OMAHA          LGT RAIN  60  57  89 N14       30.06S
GRAND ISLAND   CLOUDY    54  52  93 NE12      30.07F
KANSAS CITY    CLOUDY    64  61  90 N16       30.00R THUNDER
WICHITA        PTSUNNY   80  59  48 S23       29.92F
HAYS           CLOUDY    66  55  68 CALM      29.98R
LIBERAL        CLOUDY    63  54  72 SE6       29.99F
GOODLAND       CLOUDY    61  49  64 NE13      30.05R
$$



USA.gov is the U.S. government's official web portal to all federal, state and local government web resources and services.